Location: Robert Ferguson Observatory
(38.4385°N, 122.5078°W)
Time: 17:11:28
(UTC-07:00)

Daily predictions for brighter satellites

Satellite Brightness Start Highest point End
(mag) Time Altitude Azimuth Time Altitude Azimuth Time Altitude Azimuth
Meteor 2-1 Rocket 4.4 21:01:01 10° N 21:06:48 63° E 21:12:26 10° SSE
ERS-1 Rocket 4.1 21:02:54 10° SE 21:07:07 28° ENE 21:11:21 10° N
USA 234 4.1 21:01:50 10° ENE 21:07:09 26° SE 21:12:26 10° S
Cosmos 1356 Rocket 4.4 21:08:52 10° SSE 21:12:31 29° E 21:16:15 10° NNE
Cosmos 1842 Rocket 3.7 21:10:07 10° N 21:14:30 77° W 21:18:49 10° S
YAOGAN 6 3.1 21:13:56 10° SSE 21:17:24 45° ENE 21:20:56 10° N
Meteor 2-15 Rocket 4.4 21:14:29 10° S 21:20:32 84° E 21:26:39 10° N
Cosmos 2297 Rocket 3.4 21:16:01 10° SW 21:21:28 49° WNW 21:26:57 10° NNE
H-2A R/B 3.9 21:20:30 10° ESE 21:23:54 17° ENE 21:27:21 10° NNE
Cosmos 1726 4.2 21:22:46 10° NE 21:24:40 14° ENE 21:26:34 10° ESE
Cosmos 1741 Rocket 4.0 21:20:53 10° SSW 21:26:12 81° ESE 21:31:31 10° NNE
Cosmos 2173 Rocket 4.4 21:20:39 10° N 21:26:32 44° ENE 21:32:27 10° SSE
RESURS DK-1 4.1 21:26:38 10° N 21:29:46 20° ENE 21:32:49 10° ESE
Cosmos 2263 Rocket 3.9 21:28:33 11° ESE 21:30:37 13° E 21:32:59 10° ENE
Cosmos 1818 3.6 21:25:22 10° NNW 21:30:50 73° ENE 21:35:50 12° SE
Cosmos 1076 Rocket 3.7 21:27:47 10° S 21:32:01 52° E 21:36:16 10° NNE
ATLAS 5 CENTAUR R/B 2.3 21:29:24 10° SW 21:33:58 63° NW 21:38:56 10° NNE
Meteor 1-21 Rocket 4.4 21:28:59 10° S 21:34:30 55° E 21:39:58 10° NNE
NOSS 3-4 (A) 4.3 21:27:43 10° NW 21:34:44 62° WSW 21:42:10 10° SSE
NOSS 3-4 (C) 4.3 21:27:48 10° NW 21:34:50 62° WSW 21:42:17 10° SSE
Cosmos 1408 Rocket 4.2 21:32:09 10° SSE 21:36:02 34° E 21:39:57 10° NNE
Spot 1 4.1 21:32:12 10° S 21:36:16 79° WSW 21:40:30 10° NNW
CZ-4B DEB 2.6 21:35:19 10° S 21:38:16 77° WSW 21:41:14 10° NNW
Tiangong 1 2.5 21:38:15 10° WNW 21:40:50 32° N 21:43:23 10° ENE
Cosmos 1939 Rocket 3.6 21:37:56 10° S 21:41:50 52° W 21:45:49 10° NNW
Cosmos 1340 Rocket 4.0 21:39:36 10° SSW 21:43:28 45° WNW 21:47:23 10° N
Milstar 3 Cent rocket 4.1 21:38:05 10° WSW 21:44:21 36° S 21:53:47 14° SE
Meteor 1-29 3.6 21:43:26 10° N 21:46:50 57° WNW 21:50:12 10° SSW
Cosmos 2221 2.6 21:43:23 10° N 21:47:47 80° W 21:52:10 10° S
Cosmos 1802 Rocket 4.1 21:45:23 10° N 21:51:27 60° E 21:56:40 14° SSE
Cosmos 2237 Rocket 4.1 21:47:25 10° NW 21:51:54 25° WSW 21:56:25 10° SSW
Cosmos 1674 2.7 21:49:10 10° S 21:52:56 80° W 21:56:42 10° N
Envisat 4.4 21:50:51 10° SSW 21:55:28 35° W 22:00:06 10° NNW
SAR-Lupe-4 4.4 21:52:30 10° S 21:55:58 48° W 21:59:27 10° NNW
GPS 2-05 Rocket1 3.7 21:54:13 10° SW 21:56:46 24° SSE 21:56:51 24° SSE
Cosmos 1603 4.1 21:55:07 10° NNW 22:00:37 51° ENE 22:04:18 20° SE
Cosmos 371 Rocket 4.3 21:57:33 10° N 22:01:54 33° ENE 22:04:29 20° ESE
Cosmos 1908 3.5 21:59:44 10° NNW 22:03:36 67° W 22:06:44 15° S
Cosmos 2208 Rocket 4.3 22:00:55 10° NNW 22:06:13 68° WSW 22:10:38 15° S
MetOp-A 4.1 22:03:05 17° SSE 22:07:20 84° ENE 22:12:44 10° NNW
SPOT 5 3.1 22:05:31 21° SE 22:08:36 59° ENE 22:13:35 10° N
Abrixas rocket 4.1 22:06:14 10° NW 22:09:00 25° NNE 22:11:18 13° ENE
ARGOS 3.2 22:05:44 19° SSE 22:09:35 68° ENE 22:14:59 10° N
KORONAS-FOTON 3.9 22:06:48 10° SSW 22:10:35 74° W 22:14:22 10° N
Lacrosse 5 2.3 22:05:36 10° NW 22:10:35 55° NE 22:13:41 22° ESE
Cosmos 1242 Rocket 3.3 22:09:16 10° NNW 22:12:54 52° W 22:15:36 17° SSW
Cosmos 1763 Rocket 4.3 22:08:23 10° N 22:13:03 35° ENE 22:15:31 22° ESE
Cosmos 1766 Rocket 3.6 22:09:08 10° S 22:13:27 79° W 22:17:49 10° N
Cosmos 1943 4.2 22:10:25 10° N 22:15:32 34° ENE 22:18:35 21° ESE
SL-16 R/B 3.3 22:12:00 10° NW 22:17:13 39° WSW 22:22:10 11° S
Cosmos 2016 Rocket 3.9 22:11:25 10° N 22:17:41 82° E 22:22:13 19° S
SPOT 1/Viking Rocket 3.8 22:15:47 25° SE 22:18:37 54° ENE 22:23:38 10° N
Cosmos 1328 Rocket 3.8 22:16:03 10° N 22:20:17 52° E 22:22:01 31° SE
USA 245 3.0 22:22:12 36° SSE 22:23:31 86° ENE 22:27:39 10° NNW
YAOGAN 11 4.1 22:23:30 27° SSE 22:25:58 89° WSW 22:30:33 10° NNW
Cosmos 1151 Rocket 4.0 22:22:18 10° NNE 22:26:17 33° ENE 22:27:26 28° ESE
Atlas Centaur 2 3.3 22:24:51 10° SW 22:25:43 12° SSW 22:25:43 12° SSW
Cosmos 1515 Rocket 4.0 22:22:13 10° N 22:26:22 43° E 22:27:42 33° ESE
OAO 1 Rocket 4.5 22:21:09 10° WSW 22:26:27 61° S 22:29:33 24° ESE
Landsat 7 4.4 22:26:21 29° ESE 22:28:15 43° ENE 22:32:45 10° N
H-2A R/B 3.6 22:28:08 20° E 22:29:15 22° ENE 22:32:31 10° NNE
Cosmos 1743 Rocket 3.5 22:27:28 30° S 22:29:32 67° E 22:33:50 10° NNE
Delta 2 Rocket 4.3 22:25:55 10° WSW 22:31:28 51° SSE 22:35:16 20° E
Cosmos 1703 4.3 22:33:10 28° E 22:33:15 28° E 22:36:41 10° NNE
Cosmos 2228 Rocket 3.1 22:30:42 10° N 22:35:18 73° E 22:37:05 36° SSE
SL-08 RB Rocket 3.8 22:38:09 30° S 22:40:20 73° WSW 22:44:58 10° NNW
Cosmos 2233 Rocket 4.2 22:35:54 10° N 22:41:59 54° E 22:44:36 33° SE
Terra 2.4 22:41:47 33° ESE 22:43:11 42° ENE 22:47:41 10° N
Cosmos 468 Rocket 4.2 22:38:50 10° NNW 22:43:54 62° WSW 22:46:23 30° S
ERS-1 Rocket 4.4 22:41:46 12° SSW 22:45:46 31° W 22:50:15 10° NW
USA 234 3.4 22:43:58 10° NE 22:50:30 78° NW 22:57:02 10° SW
Meteor 1-11 4.2 22:48:17 29° S 22:51:20 77° E 22:57:10 10° NNE
Cosmos 332 Rocket 4.1 22:47:42 10° NNW 22:52:32 61° WSW 22:54:27 35° S
Cosmos 1626 2.3 22:53:53 52° E 22:53:53 52° E 22:57:23 10° NNE
Cosmos 1503 Rocket 4.1 22:52:52 42° SE 22:54:05 51° ESE 22:59:05 10° NNE
Cosmos 2058 2.8 22:57:17 58° SSE 22:58:01 75° E 23:02:14 10° N
Cosmos 1726 3.6 22:56:48 10° NNW 23:00:04 31° W 23:01:19 24° SW
Cosmos 1447 Rocket 4.4 22:58:41 31° S 23:01:56 82° E 23:08:19 10° N
H-2A R/B 2.4 23:00:21 32° SSW 23:02:44 61° W 23:08:07 10° NNW
Cosmos 304 Rocket 4.4 22:58:27 10° N 23:03:00 40° ENE 23:03:53 37° E
Cosmos 1300 3.8 23:01:03 10° NNW 23:04:37 38° W 23:05:40 31° SW
RESURS DK-1 3.5 23:04:07 10° NW 23:07:52 33° WSW 23:08:44 30° SW
Meteor 1-27 4.2 23:02:36 10° N 23:08:26 89° ENE 23:10:25 43° S
CZ-4B R/B 3.9 23:05:56 10° NNE 23:10:58 44° E 23:11:22 43° ESE
Cosmos 540 Rocket 4.0 23:07:17 10° N 23:12:14 44° ENE 23:13:14 39° E
Sich 1 4.4 23:13:51 25° ENE 23:13:51 25° ENE 23:16:41 10° NNE
ERBS 2.9 23:10:17 10° NW 23:13:03 53° WNW 23:13:03 53° WNW
Cosmos 2263 Rocket 2.3 23:10:10 22° SSW 23:13:46 75° WNW 23:19:23 10° NNE
Spot 4 4.4 23:13:21 41° E 23:14:06 45° ENE 23:18:44 10° N
Tiangong 1 2.9 23:14:02 10° WNW 23:15:40 28° NW 23:15:40 28° NW
Cosmos 1356 4.4 23:19:11 40° W 23:19:30 41° WNW 23:22:50 10° N
deb Chang Zheng 4 3.4 23:19:31 10° NNE 23:23:55 83° ESE 23:24:10 78° SSE
Cosmos 2151 3.9 23:24:07 33° WSW 23:25:26 43° W 23:29:34 10° N
Cosmos 1707 Rocket 4.2 23:24:04 10° N 23:28:12 43° ENE 23:28:12 43° ENE
Cosmos 2285 Rocket 4.0 23:23:18 10° NNW 23:29:40 77° ENE 23:31:24 50° SE
Cosmos 2034 Rocket 4.5 23:28:58 10° N 23:35:03 46° ENE 23:36:19 41° ESE
Cosmos 1455 2.6 23:34:12 10° N 23:37:32 63° NNW 23:37:32 63° NNW
Cosmos 1354 Rocket 4.4 23:36:46 35° SW 23:38:48 60° WNW 23:43:59 10° N
Cosmos 1666 Rocket 3.9 23:42:44 57° ENE 23:42:44 57° ENE 23:46:38 10° NNE
CARTOSAT-1 4.5 23:43:43 38° WSW 23:43:58 38° W 23:48:00 10° NNW
Cosmos 1844 Rocket 3.2 23:47:58 41° E 23:47:58 41° E 23:52:38 10° NE
Cosmos 1869 4.0 23:46:01 10° N 23:49:06 50° NNE 23:49:06 50° NNE
Lacrosse 5 3.5 23:49:19 10° WNW 23:52:53 22° WSW 23:52:53 22° WSW
Cosmos 1805 Rocket 3.8 23:53:27 62° WNW 23:53:27 62° WNW 23:57:39 10° N
